Aérodrome :
LOGIN :

S'inscrire | Disclaimer

   EN    FR    IT 

 










Légende :    VFR   VFR Marginal   IFR   IFR Intensif   IFR Très Intensif
Visi : 
Plafond : 
>= 8 km
>= 3000ft
5 à 8 km
1000 à 3000 ft
1500m à 5 km
500 à 1000 ft
800 à 1500m
200 à 500 ft
< 800m
< 200 ft
Symboles :   Orages  Brouillard  Fortes neiges  Fortes précipitations  Vent > 20 kt
SIGMETs :   Divers  Orages  Givrage  Turbulence  Onde Orograph.  Cendres Volcan.







- Altitude de l'aérodrome : 161 ft
- Code IATA : PMF


LIMP - Parma

DERNIER METAR :
  • 161850Z 02007KT 9999 BKN040 20/19 Q1011

METARs EXPIRÉS :
  • 161750Z VRB01KT 9999 BKN040 21/18 Q1010
  • 161650Z 20010KT 9999 BKN040 20/18 Q1010 RERA

TAF TAF LIMP
Valide du 16 à 18h jusqu'au 17 à 18h UTC


161700Z 1618/1718 VRB05KT 8000 SCT025 BKN050
TEMPO 1618/1623 4000 TSRA
Pas de NOTAMs connus pour ce terrain.
1 SIGMET publié pour la FIR Milano (LIMM) :
 
Orages noyés dans la masse
LIMM SIGMET 10 VALID 161900/162200 LIIP
LIMM MILANO FIR EMBD TS OBS SE OF LINE N4649 E01233 - N4334 E00758 TOP FL380 MOV SE WKN=



MET'MAP, la Météo Aéronautique d'un coup d'oeil ! - Copyright ORBIFLY Décembre 2007 - Disclaimer

ORBIFLY MET'MAP TEAM :

Programmation & Développement : Alexandra Zaïnal
Conception & Développement : Baudouin d'Aumeries
Co-Programmation & Développement : Marc-Olivier Méhu
Soutien technique & logistique : Manuel Goepfert

Contact : metmap@orbifly.com




SOURCES & CREDITS :

   NOAA